カタログに戻る

TITAN 3C TRANSTAGE R/B

運用中HEO
NORAD 3956·ROCKET BODY·🇺🇸 United States

打ち上げ May 23, 1969 から Cape Canaveral Space Force Station

Loading…

次のパス (今後24時間)

TLE

最新Source: Space-Track

元期: Sep 15, 2026, 09:32 UTC

1  3956U 69046F   26258.39774962 -.00000818  00000-0  00000+0 0  9995
2  3956  17.6297  36.6357 8005447 272.9210   1.5715  0.46198671 21518

AllMySatでTITAN 3C TRANSTAGE R/Bをリアルタイム追跡

Download on the App Store